Date_Time,Julian_Date,Latitude,Longitude,Instrument_Depth,U,V,Speed,Direction
(yyyy-mm-dd hh:mn:ss UTC),(JD),(+ deg. North),(+ deg. East),(m),(cm/s),(cm/s),(cm/s),(deg True)
1985-01-23 14:53:00 UTC,2446089.120139,26.0833,-83.7000,0071,2.08,-5.20,5.6006,158.1986
1985-01-23 15:08:00 UTC,2446089.130556,26.0833,-83.7000,0071,1.51,-8.80,8.9286,170.2634
1985-01-23 15:23:00 UTC,2446089.140972,26.0833,-83.7000,0071,0.60,-8.02,8.0424,175.7215
1985-01-23 15:38:00 UTC,2446089.151389,26.0833,-83.7000,0071,0.96,-8.21,8.2659,173.3306
1985-01-23 15:53:00 UTC,2446089.161806,26.0833,-83.7000,0071,0.18,-8.21,8.2120,178.7440
1985-01-23 16:08:00 UTC,2446089.172222,26.0833,-83.7000,0071,-0.69,-8.64,8.6675,184.5660
1985-01-23 16:23:00 UTC,2446089.182639,26.0833,-83.7000,0071,-4.53,-9.50,10.5248,205.4938
1985-01-23 16:38:00 UTC,2446089.193056,26.0833,-83.7000,0071,-5.03,-9.62,10.8557,207.6037
1985-01-23 16:53:00 UTC,2446089.203472,26.0833,-83.7000,0071,-6.00,-10.38,11.9893,210.0294
1985-01-23 17:08:00 UTC,2446089.213889,26.0833,-83.7000,0071,-7.04,-10.30,12.4760,214.3524
1985-01-23 17:23:00 UTC,2446089.224306,26.0833,-83.7000,0071,-7.98,-10.19,12.9428,218.0652
1985-01-23 17:38:00 UTC,2446089.234722,26.0833,-83.7000,0071,-8.26,-10.21,13.1328,218.9732
1985-01-23 17:53:00 UTC,2446089.245139,26.0833,-83.7000,0071,-7.90,-10.02,12.7597,218.2531
1985-01-23 18:08:00 UTC,2446089.255556,26.0833,-83.7000,0071,-8.44,-10.56,13.5184,218.6333
1985-01-23 18:23:00 UTC,2446089.265972,26.0833,-83.7000,0071,-8.75,-10.80,13.8997,219.0139
1985-01-23 18:38:00 UTC,2446089.276389,26.0833,-83.7000,0071,-8.60,-9.94,13.1440,220.8661
1985-01-23 18:53:00 UTC,2446089.286806,26.0833,-83.7000,0071,-8.48,-9.41,12.6672,222.0242
1985-01-23 19:08:00 UTC,2446089.297222,26.0833,-83.7000,0071,-9.17,-10.44,13.8954,221.2945
1985-01-23 19:23:00 UTC,2446089.307639,26.0833,-83.7000,0071,-9.03,-11.07,14.2859,219.2048
1985-01-23 19:38:00 UTC,2446089.318056,26.0833,-83.7000,0071,-8.36,-8.83,12.1597,223.4338
1985-01-23 19:53:00 UTC,2446089.328472,26.0833,-83.7000,0071,-8.33,-8.74,12.0738,223.6241
1985-01-23 20:08:00 UTC,2446089.338889,26.0833,-83.7000,0071,-8.21,-9.77,12.7615,220.0413
1985-01-23 20:23:00 UTC,2446089.349306,26.0833,-83.7000,0071,-8.26,-8.17,11.6179,225.3139
1985-01-23 20:38:00 UTC,2446089.359722,26.0833,-83.7000,0071,-7.92,-8.07,11.3071,224.4625
1985-01-23 20:53:00 UTC,2446089.370139,26.0833,-83.7000,0071,-7.03,-7.90,10.5750,221.6650
1985-01-23 21:08:00 UTC,2446089.380556,26.0833,-83.7000,0071,-6.60,-6.42,9.2074,225.7921
1985-01-23 21:23:00 UTC,2446089.390972,26.0833,-83.7000,0071,-5.74,-3.61,6.7808,237.8334
1985-01-23 21:38:00 UTC,2446089.401389,26.0833,-83.7000,0071,-4.01,-2.17,4.5595,241.5801
1985-01-23 21:53:00 UTC,2446089.411806,26.0833,-83.7000,0071,-1.51,-0.68,1.6560,245.7565
1985-01-23 22:08:00 UTC,2446089.422222,26.0833,-83.7000,0071,1.51,1.77,2.3266,40.4677
1985-01-23 22:23:00 UTC,2446089.432639,26.0833,-83.7000,0071,1.19,-1.28,1.7477,137.0868
1985-01-23 22:38:00 UTC,2446089.443056,26.0833,-83.7000,0071,1.24,-1.19,1.7186,133.8212
1985-01-23 22:53:00 UTC,2446089.453472,26.0833,-83.7000,0071,3.32,1.49,3.6390,65.8297
1985-01-23 23:08:00 UTC,2446089.463889,26.0833,-83.7000,0071,3.83,3.82,5.4094,45.0749
1985-01-23 23:23:00 UTC,2446089.474306,26.0833,-83.7000,0071,3.37,3.75,5.0418,41.9450
1985-01-23 23:38:00 UTC,2446089.484722,26.0833,-83.7000,0071,4.73,6.44,7.9904,36.2962
1985-01-23 23:53:00 UTC,2446089.495139,26.0833,-83.7000,0071,4.32,7.62,8.7594,29.5502
1985-01-24 00:08:00 UTC,2446089.505556,26.0833,-83.7000,0071,4.28,9.74,10.6389,23.7219
1985-01-24 00:23:00 UTC,2446089.515972,26.0833,-83.7000,0071,3.61,11.13,11.7008,17.9704
1985-01-24 00:38:00 UTC,2446089.526389,26.0833,-83.7000,0071,2.98,11.48,11.8605,14.5518
1985-01-24 00:53:00 UTC,2446089.536806,26.0833,-83.7000,0071,4.93,11.97,12.9455,22.3849
1985-01-24 01:08:00 UTC,2446089.547222,26.0833,-83.7000,0071,5.27,10.67,11.9005,26.2851
1985-01-24 01:23:00 UTC,2446089.557639,26.0833,-83.7000,0071,5.38,9.65,11.0484,29.1402
1985-01-24 01:38:00 UTC,2446089.568056,26.0833,-83.7000,0071,5.49,9.26,10.7651,30.6625
1985-01-24 01:53:00 UTC,2446089.578472,26.0833,-83.7000,0071,5.36,7.72,9.3983,34.7723
1985-01-24 02:08:00 UTC,2446089.588889,26.0833,-83.7000,0071,5.31,7.09,8.8580,36.8311
1985-01-24 02:23:00 UTC,2446089.599306,26.0833,-83.7000,0071,4.60,-5.60,7.2471,140.5993
1985-01-24 02:38:00 UTC,2446089.609722,26.0833,-83.7000,0071,8.48,-1.74,8.6567,101.5955
1985-01-24 02:53:00 UTC,2446089.620139,26.0833,-83.7000,0071,6.72,-2.56,7.1911,110.8544
1985-01-24 03:08:00 UTC,2446089.630556,26.0833,-83.7000,0071,6.21,-5.18,8.0868,129.8328
1985-01-24 03:23:00 UTC,2446089.640972,26.0833,-83.7000,0071,1.60,-11.01,11.1257,171.7315
1985-01-24 03:38:00 UTC,2446089.651389,26.0833,-83.7000,0071,1.87,-9.34,9.5254,168.6783
1985-01-24 03:53:00 UTC,2446089.661806,26.0833,-83.7000,0071,1.54,-11.89,11.9893,172.6201
1985-01-24 04:08:00 UTC,2446089.672222,26.0833,-83.7000,0071,1.05,-10.99,11.0400,174.5424
1985-01-24 04:23:00 UTC,2446089.682639,26.0833,-83.7000,0071,0.29,-11.73,11.7336,178.5838
1985-01-24 04:38:00 UTC,2446089.693056,26.0833,-83.7000,0071,0.23,-14.95,14.9518,179.1186
1985-01-24 04:53:00 UTC,2446089.703472,26.0833,-83.7000,0071,-4.57,-10.78,11.7087,202.9737
1985-01-24 05:08:00 UTC,2446089.713889,26.0833,-83.7000,0071,-4.62,-13.69,14.4485,198.6481
1985-01-24 05:23:00 UTC,2446089.724306,26.0833,-83.7000,0071,-5.21,-11.23,12.3797,204.8883
1985-01-24 05:38:00 UTC,2446089.734722,26.0833,-83.7000,0071,-4.56,-11.86,12.7064,201.0311
1985-01-24 05:53:00 UTC,2446089.745139,26.0833,-83.7000,0071,-6.85,-10.54,12.5704,213.0201
1985-01-24 06:08:00 UTC,2446089.755556,26.0833,-83.7000,0071,-6.16,-11.04,12.6423,209.1602
1985-01-24 06:23:00 UTC,2446089.765972,26.0833,-83.7000,0071,-7.41,-11.73,13.8745,212.2812
1985-01-24 06:38:00 UTC,2446089.776389,26.0833,-83.7000,0071,-6.46,-11.55,13.2338,209.2186
1985-01-24 06:53:00 UTC,2446089.786806,26.0833,-83.7000,0071,-6.77,-10.03,12.1010,214.0184
1985-01-24 07:08:00 UTC,2446089.797222,26.0833,-83.7000,0071,-7.23,-10.85,13.0382,213.6779
1985-01-24 07:23:00 UTC,2446089.807639,26.0833,-83.7000,0071,-7.45,-11.40,13.6185,213.1650
1985-01-24 07:38:00 UTC,2446089.818056,26.0833,-83.7000,0071,-7.00,-10.32,12.4701,214.1488
1985-01-24 07:53:00 UTC,2446089.828472,26.0833,-83.7000,0071,-6.49,-10.32,12.1911,212.1648
1985-01-24 08:08:00 UTC,2446089.838889,26.0833,-83.7000,0071,-7.38,-11.56,13.7149,212.5545
1985-01-24 08:23:00 UTC,2446089.849306,26.0833,-83.7000,0071,-6.40,-9.47,11.4298,214.0516
1985-01-24 08:38:00 UTC,2446089.859722,26.0833,-83.7000,0071,-6.32,-9.40,11.3271,213.9145
1985-01-24 08:53:00 UTC,2446089.870139,26.0833,-83.7000,0071,-5.70,-10.88,12.2827,207.6499
1985-01-24 09:08:00 UTC,2446089.880556,26.0833,-83.7000,0071,-4.32,-11.32,12.1163,200.8881
1985-01-24 09:23:00 UTC,2446089.890972,26.0833,-83.7000,0071,-4.53,-8.80,9.8975,207.2382
1985-01-24 09:38:00 UTC,2446089.901389,26.0833,-83.7000,0071,-4.16,-8.57,9.5263,205.8926
1985-01-24 09:53:00 UTC,2446089.911806,26.0833,-83.7000,0071,-3.21,-6.79,7.5105,205.3026
1985-01-24 10:08:00 UTC,2446089.922222,26.0833,-83.7000,0071,-3.14,-6.18,6.9320,206.9347
1985-01-24 10:23:00 UTC,2446089.932639,26.0833,-83.7000,0071,-0.76,-6.44,6.4847,186.7305
1985-01-24 10:38:00 UTC,2446089.943056,26.0833,-83.7000,0071,0.39,-6.21,6.2222,176.4064
1985-01-24 10:53:00 UTC,2446089.953472,26.0833,-83.7000,0071,0.11,-5.43,5.4311,178.8395
1985-01-24 11:08:00 UTC,2446089.963889,26.0833,-83.7000,0071,3.09,-2.79,4.1632,132.0793
1985-01-24 11:23:00 UTC,2446089.974306,26.0833,-83.7000,0071,4.46,-1.60,4.7383,109.7352
1985-01-24 11:38:00 UTC,2446089.984722,26.0833,-83.7000,0071,5.52,-1.00,5.6098,100.2683
1985-01-24 11:53:00 UTC,2446089.995139,26.0833,-83.7000,0071,6.65,-0.28,6.6559,92.4110
1985-01-24 12:08:00 UTC,2446090.005556,26.0833,-83.7000,0071,7.61,-0.12,7.6109,90.9034
1985-01-24 12:23:00 UTC,2446090.015972,26.0833,-83.7000,0071,8.59,0.98,8.6457,83.4915
1985-01-24 12:38:00 UTC,2446090.026389,26.0833,-83.7000,0071,9.98,0.57,9.9963,86.7311
1985-01-24 12:53:00 UTC,2446090.036806,26.0833,-83.7000,0071,10.08,0.51,10.0929,87.1036
1985-01-24 13:08:00 UTC,2446090.047222,26.0833,-83.7000,0071,10.35,0.81,10.3816,85.5251
1985-01-24 13:23:00 UTC,2446090.057639,26.0833,-83.7000,0071,10.90,1.78,11.0444,80.7253
1985-01-24 13:38:00 UTC,2446090.068056,26.0833,-83.7000,0071,10.37,2.01,10.5630,79.0305
1985-01-24 13:53:00 UTC,2446090.078472,26.0833,-83.7000,0071,11.95,3.18,12.3659,75.0984
1985-01-24 14:08:00 UTC,2446090.088889,26.0833,-83.7000,0071,12.31,1.31,12.3795,83.9256
1985-01-24 14:23:00 UTC,2446090.099306,26.0833,-83.7000,0071,11.97,1.65,12.0832,82.1515
1985-01-24 14:38:00 UTC,2446090.109722,26.0833,-83.7000,0071,11.33,4.94,12.3601,66.4423
1985-01-24 14:53:00 UTC,2446090.120139,26.0833,-83.7000,0071,13.99,2.39,14.1927,80.3054
1985-01-24 15:08:00 UTC,2446090.130556,26.0833,-83.7000,0071,13.72,3.82,14.2419,74.4414
1985-01-24 15:23:00 UTC,2446090.140972,26.0833,-83.7000,0071,13.80,1.70,13.9043,82.9772
1985-01-24 15:38:00 UTC,2446090.151389,26.0833,-83.7000,0071,13.25,1.57,13.3427,83.2425
1985-01-24 15:53:00 UTC,2446090.161806,26.0833,-83.7000,0071,12.25,1.04,12.2941,85.1473
1985-01-24 16:08:00 UTC,2446090.172222,26.0833,-83.7000,0071,10.88,2.54,11.1726,76.8593
1985-01-24 16:23:00 UTC,2446090.182639,26.0833,-83.7000,0071,10.26,0.54,10.2742,86.9872
1985-01-24 16:38:00 UTC,2446090.193056,26.0833,-83.7000,0071,10.00,0.25,10.0031,88.5679
1985-01-24 16:53:00 UTC,2446090.203472,26.0833,-83.7000,0071,10.38,0.28,10.3838,88.4548
1985-01-24 17:08:00 UTC,2446090.213889,26.0833,-83.7000,0071,10.08,0.61,10.0984,86.5369
1985-01-24 17:23:00 UTC,2446090.224306,26.0833,-83.7000,0071,9.90,0.23,9.9027,88.6691
1985-01-24 17:38:00 UTC,2446090.234722,26.0833,-83.7000,0071,8.34,-0.64,8.3645,94.3882
1985-01-24 17:53:00 UTC,2446090.245139,26.0833,-83.7000,0071,8.90,-0.96,8.9516,96.1564
1985-01-24 18:08:00 UTC,2446090.255556,26.0833,-83.7000,0071,7.21,-2.58,7.6577,109.6890
1985-01-24 18:23:00 UTC,2446090.265972,26.0833,-83.7000,0071,5.59,-3.19,6.4362,119.7117
1985-01-24 18:38:00 UTC,2446090.276389,26.0833,-83.7000,0071,2.45,-5.21,5.7573,154.8148
1985-01-24 18:53:00 UTC,2446090.286806,26.0833,-83.7000,0071,0.52,-6.45,6.4709,175.3908
1985-01-24 19:08:00 UTC,2446090.297222,26.0833,-83.7000,0071,0.32,-6.56,6.5678,177.2073
1985-01-24 19:23:00 UTC,2446090.307639,26.0833,-83.7000,0071,-1.65,-5.77,6.0013,195.9585
1985-01-24 19:38:00 UTC,2446090.318056,26.0833,-83.7000,0071,-2.92,-5.89,6.5741,206.3702
1985-01-24 19:53:00 UTC,2446090.328472,26.0833,-83.7000,0071,-2.35,-6.63,7.0342,199.5169
1985-01-24 20:08:00 UTC,2446090.338889,26.0833,-83.7000,0071,-2.89,-6.63,7.2325,203.5523
1985-01-24 20:23:00 UTC,2446090.349306,26.0833,-83.7000,0071,-3.16,-6.62,7.3355,205.5171
1985-01-24 20:38:00 UTC,2446090.359722,26.0833,-83.7000,0071,-2.92,-5.56,6.2801,207.7076
1985-01-24 20:53:00 UTC,2446090.370139,26.0833,-83.7000,0071,-2.56,-5.32,5.9039,205.6970
1985-01-24 21:08:00 UTC,2446090.380556,26.0833,-83.7000,0071,-2.59,-4.98,5.6132,207.4781
1985-01-24 21:23:00 UTC,2446090.390972,26.0833,-83.7000,0071,-2.62,-4.97,5.6183,207.7966
1985-01-24 21:38:00 UTC,2446090.401389,26.0833,-83.7000,0071,-2.35,-4.57,5.1388,207.2133
1985-01-24 21:53:00 UTC,2446090.411806,26.0833,-83.7000,0071,-2.18,-4.66,5.1447,205.0707
1985-01-24 22:08:00 UTC,2446090.422222,26.0833,-83.7000,0071,-1.27,-3.88,4.0826,198.1243
1985-01-24 22:23:00 UTC,2446090.432639,26.0833,-83.7000,0071,-1.34,-3.56,3.8038,200.6266
1985-01-24 22:38:00 UTC,2446090.443056,26.0833,-83.7000,0071,-0.47,-3.41,3.4422,187.8476
1985-01-24 22:53:00 UTC,2446090.453472,26.0833,-83.7000,0071,1.39,-2.89,3.2069,154.3139
1985-01-24 23:08:00 UTC,2446090.463889,26.0833,-83.7000,0071,2.86,-0.87,2.9894,106.9195
1985-01-24 23:23:00 UTC,2446090.474306,26.0833,-83.7000,0071,3.56,-0.45,3.5883,97.2042
1985-01-24 23:38:00 UTC,2446090.484722,26.0833,-83.7000,0071,4.36,0.17,4.3633,87.7671
1985-01-24 23:53:00 UTC,2446090.495139,26.0833,-83.7000,0071,5.41,-0.24,5.4153,92.5401
1985-01-25 00:08:00 UTC,2446090.505556,26.0833,-83.7000,0071,6.16,0.14,6.1616,88.6980
1985-01-25 00:23:00 UTC,2446090.515972,26.0833,-83.7000,0071,6.75,-0.21,6.7533,91.7820
1985-01-25 00:38:00 UTC,2446090.526389,26.0833,-83.7000,0071,6.72,-0.60,6.7467,95.1022
1985-01-25 00:53:00 UTC,2446090.536806,26.0833,-83.7000,0071,7.23,0.22,7.2333,88.2571
1985-01-25 01:08:00 UTC,2446090.547222,26.0833,-83.7000,0071,7.70,0.09,7.7005,89.3303
1985-01-25 01:23:00 UTC,2446090.557639,26.0833,-83.7000,0071,8.17,-0.46,8.1829,93.2225
1985-01-25 01:38:00 UTC,2446090.568056,26.0833,-83.7000,0071,9.41,-0.57,9.4272,93.4664
1985-01-25 01:53:00 UTC,2446090.578472,26.0833,-83.7000,0071,10.95,-1.32,11.0293,96.8737
1985-01-25 02:08:00 UTC,2446090.588889,26.0833,-83.7000,0071,10.79,-1.74,10.9294,99.1607
1985-01-25 02:23:00 UTC,2446090.599306,26.0833,-83.7000,0071,9.99,-1.93,10.1747,100.9344
1985-01-25 02:38:00 UTC,2446090.609722,26.0833,-83.7000,0071,9.65,-2.92,10.0821,106.8353
1985-01-25 02:53:00 UTC,2446090.620139,26.0833,-83.7000,0071,9.16,-3.45,9.7882,110.6383
1985-01-25 03:08:00 UTC,2446090.630556,26.0833,-83.7000,0071,9.88,-3.10,10.3549,107.4200
1985-01-25 03:23:00 UTC,2446090.640972,26.0833,-83.7000,0071,8.42,-3.52,9.1262,112.6875
1985-01-25 03:38:00 UTC,2446090.651389,26.0833,-83.7000,0071,8.15,-5.09,9.6089,121.9864
1985-01-25 03:53:00 UTC,2446090.661806,26.0833,-83.7000,0071,7.45,-5.94,9.5282,128.5659
1985-01-25 04:08:00 UTC,2446090.672222,26.0833,-83.7000,0071,6.52,-6.80,9.4207,136.2042
1985-01-25 04:23:00 UTC,2446090.682639,26.0833,-83.7000,0071,5.80,-6.49,8.7040,138.2134
1985-01-25 04:38:00 UTC,2446090.693056,26.0833,-83.7000,0071,7.34,-6.58,9.8576,131.8749
1985-01-25 04:53:00 UTC,2446090.703472,26.0833,-83.7000,0071,5.05,-6.68,8.3741,142.9111
1985-01-25 05:08:00 UTC,2446090.713889,26.0833,-83.7000,0071,4.33,-7.72,8.8514,150.7128
1985-01-25 05:23:00 UTC,2446090.724306,26.0833,-83.7000,0071,3.48,-7.24,8.0329,154.3281
1985-01-25 05:38:00 UTC,2446090.734722,26.0833,-83.7000,0071,2.85,-7.90,8.3984,160.1626
1985-01-25 05:53:00 UTC,2446090.745139,26.0833,-83.7000,0071,1.91,-7.70,7.9334,166.0688
1985-01-25 06:08:00 UTC,2446090.755556,26.0833,-83.7000,0071,0.42,-8.73,8.7401,177.2456
1985-01-25 06:23:00 UTC,2446090.765972,26.0833,-83.7000,0071,0.68,-8.36,8.3876,175.3498
1985-01-25 06:38:00 UTC,2446090.776389,26.0833,-83.7000,0071,-0.59,-9.20,9.2189,183.6694
1985-01-25 06:53:00 UTC,2446090.786806,26.0833,-83.7000,0071,-1.74,-9.16,9.3238,190.7556
1985-01-25 07:08:00 UTC,2446090.797222,26.0833,-83.7000,0071,-1.54,-9.56,9.6832,189.1510
1985-01-25 07:23:00 UTC,2446090.807639,26.0833,-83.7000,0071,-1.44,-9.79,9.8953,188.3676
1985-01-25 07:38:00 UTC,2446090.818056,26.0833,-83.7000,0071,-2.87,-10.03,10.4325,195.9680
1985-01-25 07:53:00 UTC,2446090.828472,26.0833,-83.7000,0071,-3.14,-9.70,10.1956,197.9374
1985-01-25 08:08:00 UTC,2446090.838889,26.0833,-83.7000,0071,-2.55,-9.58,9.9136,194.9054
1985-01-25 08:23:00 UTC,2446090.849306,26.0833,-83.7000,0071,-2.04,-9.95,10.1570,191.5865
1985-01-25 08:38:00 UTC,2446090.859722,26.0833,-83.7000,0071,-3.83,-9.46,10.2059,202.0412
1985-01-25 08:53:00 UTC,2446090.870139,26.0833,-83.7000,0071,-3.31,-8.68,9.2897,200.8737
1985-01-25 09:08:00 UTC,2446090.880556,26.0833,-83.7000,0071,-3.98,-8.18,9.0969,205.9454
1985-01-25 09:23:00 UTC,2446090.890972,26.0833,-83.7000,0071,-3.87,-6.90,7.9112,209.2867
1985-01-25 09:38:00 UTC,2446090.901389,26.0833,-83.7000,0071,-3.06,-7.37,7.9800,202.5481
1985-01-25 09:53:00 UTC,2446090.911806,26.0833,-83.7000,0071,-4.57,-6.74,8.1432,214.1389
1985-01-25 10:08:00 UTC,2446090.922222,26.0833,-83.7000,0071,-4.21,-5.76,7.1345,216.1632
1985-01-25 10:23:00 UTC,2446090.932639,26.0833,-83.7000,0071,-1.86,-3.61,4.0610,207.2591
1985-01-25 10:38:00 UTC,2446090.943056,26.0833,-83.7000,0071,-2.28,-4.38,4.9379,207.4991
1985-01-25 10:53:00 UTC,2446090.953472,26.0833,-83.7000,0071,-1.13,-0.81,1.3903,234.3665
1985-01-25 11:08:00 UTC,2446090.963889,26.0833,-83.7000,0071,1.19,4.03,4.2020,16.4511
1985-01-25 11:23:00 UTC,2446090.974306,26.0833,-83.7000,0071,1.61,4.77,5.0344,18.6509
1985-01-25 11:38:00 UTC,2446090.984722,26.0833,-83.7000,0071,1.86,6.34,6.6072,16.3504
1985-01-25 11:53:00 UTC,2446090.995139,26.0833,-83.7000,0071,3.29,6.31,7.1162,27.5373
1985-01-25 12:08:00 UTC,2446091.005556,26.0833,-83.7000,0071,4.32,7.09,8.3024,31.3543
1985-01-25 12:23:00 UTC,2446091.015972,26.0833,-83.7000,0071,5.80,6.62,8.8014,41.2227
1985-01-25 12:38:00 UTC,2446091.026389,26.0833,-83.7000,0071,6.43,7.21,9.6607,41.7271
1985-01-25 12:53:00 UTC,2446091.036806,26.0833,-83.7000,0071,7.43,6.60,9.9381,48.3856
1985-01-25 13:08:00 UTC,2446091.047222,26.0833,-83.7000,0071,7.31,8.54,11.2413,40.5626
1985-01-25 13:23:00 UTC,2446091.057639,26.0833,-83.7000,0071,8.66,8.76,12.3180,44.6711
1985-01-25 13:38:00 UTC,2446091.068056,26.0833,-83.7000,0071,9.57,7.85,12.3777,50.6389
1985-01-25 13:53:00 UTC,2446091.078472,26.0833,-83.7000,0071,11.19,8.05,13.7847,54.2690
1985-01-25 14:08:00 UTC,2446091.088889,26.0833,-83.7000,0071,13.32,4.99,14.2240,69.4628
1985-01-25 14:23:00 UTC,2446091.099306,26.0833,-83.7000,0071,12.56,6.85,14.3065,61.3927
1985-01-25 14:38:00 UTC,2446091.109722,26.0833,-83.7000,0071,14.44,2.86,14.7205,78.7969
1985-01-25 14:53:00 UTC,2446091.120139,26.0833,-83.7000,0071,14.12,2.63,14.3628,79.4490
1985-01-25 15:08:00 UTC,2446091.130556,26.0833,-83.7000,0071,14.13,2.27,14.3112,80.8734
1985-01-25 15:23:00 UTC,2446091.140972,26.0833,-83.7000,0071,14.84,1.57,14.9228,83.9608
1985-01-25 15:38:00 UTC,2446091.151389,26.0833,-83.7000,0071,14.78,2.70,15.0246,79.6474
1985-01-25 15:53:00 UTC,2446091.161806,26.0833,-83.7000,0071,13.98,2.34,14.1745,80.4978
1985-01-25 16:08:00 UTC,2446091.172222,26.0833,-83.7000,0071,14.24,2.44,14.4475,80.2769
1985-01-25 16:23:00 UTC,2446091.182639,26.0833,-83.7000,0071,13.95,2.02,14.0955,81.7607
1985-01-25 16:38:00 UTC,2446091.193056,26.0833,-83.7000,0071,14.00,1.77,14.1114,82.7944
1985-01-25 16:53:00 UTC,2446091.203472,26.0833,-83.7000,0071,13.05,1.24,13.1088,84.5721
1985-01-25 17:08:00 UTC,2446091.213889,26.0833,-83.7000,0071,13.19,0.92,13.2220,86.0101
1985-01-25 17:23:00 UTC,2446091.224306,26.0833,-83.7000,0071,13.20,0.79,13.2236,86.5750
1985-01-25 17:38:00 UTC,2446091.234722,26.0833,-83.7000,0071,12.82,0.11,12.8205,89.5084
1985-01-25 17:53:00 UTC,2446091.245139,26.0833,-83.7000,0071,11.24,-0.97,11.2818,94.9323
1985-01-25 18:08:00 UTC,2446091.255556,26.0833,-83.7000,0071,11.53,-2.07,11.7143,100.1780
1985-01-25 18:23:00 UTC,2446091.265972,26.0833,-83.7000,0071,10.78,-2.85,11.1504,104.8089
1985-01-25 18:38:00 UTC,2446091.276389,26.0833,-83.7000,0071,11.51,-4.01,12.1885,109.2080
1985-01-25 18:53:00 UTC,2446091.286806,26.0833,-83.7000,0071,11.81,-3.25,12.2490,105.3864
1985-01-25 19:08:00 UTC,2446091.297222,26.0833,-83.7000,0071,11.40,-3.41,11.8991,106.6531
1985-01-25 19:23:00 UTC,2446091.307639,26.0833,-83.7000,0071,11.26,-4.82,12.2483,113.1740
1985-01-25 19:38:00 UTC,2446091.318056,26.0833,-83.7000,0071,11.96,-4.09,12.6400,108.8793
1985-01-25 19:53:00 UTC,2446091.328472,26.0833,-83.7000,0071,11.13,-5.60,12.4594,116.7090
1985-01-25 20:08:00 UTC,2446091.338889,26.0833,-83.7000,0071,10.50,-6.23,12.2091,120.6821
1985-01-25 20:23:00 UTC,2446091.349306,26.0833,-83.7000,0071,8.76,-9.01,12.5665,135.8060
1985-01-25 20:38:00 UTC,2446091.359722,26.0833,-83.7000,0071,9.33,-10.02,13.6912,137.0422
1985-01-25 20:53:00 UTC,2446091.370139,26.0833,-83.7000,0071,7.71,-10.14,12.7383,142.7523
1985-01-25 21:08:00 UTC,2446091.380556,26.0833,-83.7000,0071,6.14,-10.92,12.5278,150.6522
1985-01-25 21:23:00 UTC,2446091.390972,26.0833,-83.7000,0071,4.86,-10.35,11.4342,154.8469
1985-01-25 21:38:00 UTC,2446091.401389,26.0833,-83.7000,0071,4.75,-10.02,11.0889,154.6366
1985-01-25 21:53:00 UTC,2446091.411806,26.0833,-83.7000,0071,3.96,-9.85,10.6162,158.0984
1985-01-25 22:08:00 UTC,2446091.422222,26.0833,-83.7000,0071,5.59,-9.59,11.1003,149.7621
1985-01-25 22:23:00 UTC,2446091.432639,26.0833,-83.7000,0071,4.68,-9.53,10.6171,153.8452
1985-01-25 22:38:00 UTC,2446091.443056,26.0833,-83.7000,0071,4.82,-10.14,11.2273,154.5761
1985-01-25 22:53:00 UTC,2446091.453472,26.0833,-83.7000,0071,4.77,-10.21,11.2693,154.9585
1985-01-25 23:08:00 UTC,2446091.463889,26.0833,-83.7000,0071,5.09,-9.48,10.7600,151.7678
1985-01-25 23:23:00 UTC,2446091.474306,26.0833,-83.7000,0071,4.93,-7.92,9.3291,148.0988
1985-01-25 23:38:00 UTC,2446091.484722,26.0833,-83.7000,0071,5.17,-8.13,9.6346,147.5470
1985-01-25 23:53:00 UTC,2446091.495139,26.0833,-83.7000,0071,5.69,-7.09,9.0909,141.2516
1985-01-26 00:08:00 UTC,2446091.505556,26.0833,-83.7000,0071,6.47,-7.13,9.6280,137.7783
1985-01-26 00:23:00 UTC,2446091.515972,26.0833,-83.7000,0071,7.38,-5.48,9.1921,126.5956
1985-01-26 00:38:00 UTC,2446091.526389,26.0833,-83.7000,0071,8.08,-5.30,9.6631,123.2625
1985-01-26 00:53:00 UTC,2446091.536806,26.0833,-83.7000,0071,10.58,-3.19,11.0505,106.7787
1985-01-26 01:08:00 UTC,2446091.547222,26.0833,-83.7000,0071,10.40,-2.74,10.7549,104.7598
1985-01-26 01:23:00 UTC,2446091.557639,26.0833,-83.7000,0071,10.02,-3.36,10.5683,108.5378
1985-01-26 01:38:00 UTC,2446091.568056,26.0833,-83.7000,0071,10.59,-3.06,11.0232,106.1167
1985-01-26 01:53:00 UTC,2446091.578472,26.0833,-83.7000,0071,12.16,-1.72,12.2810,98.0509
1985-01-26 02:08:00 UTC,2446091.588889,26.0833,-83.7000,0071,13.04,-1.62,13.1402,97.0817
1985-01-26 02:23:00 UTC,2446091.599306,26.0833,-83.7000,0071,13.80,-2.28,13.9871,99.3815
1985-01-26 02:38:00 UTC,2446091.609722,26.0833,-83.7000,0071,13.85,-3.00,14.1712,102.2218
1985-01-26 02:53:00 UTC,2446091.620139,26.0833,-83.7000,0071,14.15,-3.43,14.5598,103.6258
1985-01-26 03:08:00 UTC,2446091.630556,26.0833,-83.7000,0071,12.88,-3.34,13.3060,104.5375
1985-01-26 03:23:00 UTC,2446091.640972,26.0833,-83.7000,0071,13.64,-4.22,14.2779,107.1912
1985-01-26 03:38:00 UTC,2446091.651389,26.0833,-83.7000,0071,12.80,-4.37,13.5254,108.8502
1985-01-26 03:53:00 UTC,2446091.661806,26.0833,-83.7000,0071,12.25,-4.74,13.1351,111.1534
1985-01-26 04:08:00 UTC,2446091.672222,26.0833,-83.7000,0071,10.94,-4.03,11.6587,110.2224
1985-01-26 04:23:00 UTC,2446091.682639,26.0833,-83.7000,0071,11.96,-4.66,12.8358,111.2875
1985-01-26 04:38:00 UTC,2446091.693056,26.0833,-83.7000,0071,12.21,-4.86,13.1417,111.7042
1985-01-26 04:53:00 UTC,2446091.703472,26.0833,-83.7000,0071,10.23,-6.07,11.8953,120.6829
1985-01-26 05:08:00 UTC,2446091.713889,26.0833,-83.7000,0071,10.21,-8.09,13.0266,128.3919
1985-01-26 05:23:00 UTC,2446091.724306,26.0833,-83.7000,0071,7.94,-10.62,13.2600,143.2165
1985-01-26 05:38:00 UTC,2446091.734722,26.0833,-83.7000,0071,6.17,-10.69,12.3428,150.0075
1985-01-26 05:53:00 UTC,2446091.745139,26.0833,-83.7000,0071,6.96,-11.14,13.1355,148.0038
1985-01-26 06:08:00 UTC,2446091.755556,26.0833,-83.7000,0071,5.63,-10.23,11.6769,151.1741
1985-01-26 06:23:00 UTC,2446091.765972,26.0833,-83.7000,0071,6.36,-10.95,12.6630,149.8510
1985-01-26 06:38:00 UTC,2446091.776389,26.0833,-83.7000,0071,6.09,-11.38,12.9071,151.8466
1985-01-26 06:53:00 UTC,2446091.786806,26.0833,-83.7000,0071,5.99,-11.58,13.0375,152.6488
1985-01-26 07:08:00 UTC,2446091.797222,26.0833,-83.7000,0071,2.61,-10.26,10.5868,165.7275
1985-01-26 07:23:00 UTC,2446091.807639,26.0833,-83.7000,0071,4.84,-11.23,12.2286,156.6845
1985-01-26 07:38:00 UTC,2446091.818056,26.0833,-83.7000,0071,1.04,-11.29,11.3378,174.7369
1985-01-26 07:53:00 UTC,2446091.828472,26.0833,-83.7000,0071,1.20,-10.93,10.9957,173.7346
1985-01-26 08:08:00 UTC,2446091.838889,26.0833,-83.7000,0071,0.19,-11.54,11.5416,179.0567
1985-01-26 08:23:00 UTC,2446091.849306,26.0833,-83.7000,0071,0.66,-9.91,9.9320,176.1897
1985-01-26 08:38:00 UTC,2446091.859722,26.0833,-83.7000,0071,-1.08,-9.48,9.5413,186.4994
1985-01-26 08:53:00 UTC,2446091.870139,26.0833,-83.7000,0071,0.01,-9.22,9.2200,179.9378
1985-01-26 09:08:00 UTC,2446091.880556,26.0833,-83.7000,0071,0.63,-9.17,9.1916,176.0698
1985-01-26 09:23:00 UTC,2446091.890972,26.0833,-83.7000,0071,2.15,-11.52,11.7189,169.4284
1985-01-26 09:38:00 UTC,2446091.901389,26.0833,-83.7000,0071,1.43,-12.47,12.5517,173.4582